Погода в Поселке имени Морозова

Россия / Санкт-Петербург и Ленинградская область     59°58′28″N   31°02′05″E
темп.,
°C
ветер,
м/с
пор.,
м/с
влажн.,
%
обл.,
%
осадки,
мм/ч
давл.,
гПа
погр.,
м
4 марта, чт
чт400:00+1сз51190100 1.3 1000926
03:00−3зсз4118283 1.3 1002494
06:00−5зсз39890 0.0 1001384
09:00−5сз279220 0.0 1002395
12:00−3ссз358499 0.1 1003631
15:00−3ссз358599 0.3 1003568
18:00−4сз3790100 0.5 1003643
21:00−6зсз279097 0.6 1004237
5 марта, пт
пт500:00−6зсз369274 0.0 1005224
03:00−7зсз269568 0.0 1006192
06:00−8зсз269576 0.0 1007251
09:00−7сз369082 0.1 1009418
12:00−5ссз358199 0.1 1011670
15:00−5ссз3477100 0.2 1012832
18:00−6с128494 0.0 101474
21:00−8ссз229282 0.3 101643
6 марта, сб
сб600:00−8зсз259265 0.0 1017128
03:00−9зсз249548 0.0 101796
06:00−10з24950 0.0 101793
09:00−9зюз37890 0.0 1016271
12:00−4юз48710 0.0 1013772
15:00−3юз6126550 0.0 10081122
18:00−3юз81692100 1.2 10021241
21:00−2зюз81793100 4.0 9961349
7 марта, вс
вс700:00−1зюз71596100 3.0 9921166
03:00−4зсз4887100 6.1 992787
06:00−9з3109067 0.0 992411
09:00−9зюз3117666 0.2 991681
12:00−6зюз478797 0.3 990794
15:00−5з357899 1.4 989856
18:00−7ссв3692100 0.8 991463
21:00−9с5128297 1.0 995631
8 марта, пн
пн800:00−10ссз4118459 0.0 998524
03:00−10ссз6119080 0.3 1001875
06:00−12с51092100 0.3 1003947
09:00−12с51090100 0.6 1006918
12:00−12с61088100 0.4 1009861
15:00−11с5986100 0.6 1012864
18:00−11с41090100 0.2 1015812
21:00−13ссв3994100 0.4 1017527